Weather observations for the past three days for
Westerly, Westerly State Airport
Imperial (Metric)
Date Time (edt) Wind (mph) Vis. (mi.) Weather Sky Cond. Temperature (ºF) Relative Humidity Wind Chill (°F) Heat Index (°F) Pressure Precipitation (in)
Air Dwpt 6 hour altimeter (in) sea level (mb) 1 hr 3 hr 6 hr
Max. Min.
24 01:53 SW 9 10.00 Mostly Cloudy FEW016 BKN065 71.1 66.9 75.9 70 87% 29.6 1002.1 0.03
24 00:53 SW 8 G 18 9.00 Light Rain SCT070 BKN090 BKN110 71.1 66.9 87% 29.6 1002.2 0.01
23 23:53 SW 8 9.00 A Few Clouds FEW100 71.1 66.9 87% 29.6 1002.3
23 22:53 S 6 7.00 Light Rain BKN110 73.9 70 88% 29.59 1001.9 0.02 0.02
23 21:53 SW 5 10.00 Overcast FEW015 BKN024 OVC100 75.9 70 82% 77 29.62 1002.8
23 20:53 SW 10 G 22 10.00 A Few Clouds FEW010 73 69.1 87% 29.61 1002.7
23 19:53 SW 10 G 21 8.00 Mostly Cloudy SCT007 BKN016 73 69.1 79 73 87% 29.61 1002.6
23 18:53 SW 9 G 24 8.00 Overcast OVC007 73.9 70 88% 29.63 1003.3
23 17:53 SW 10 G 21 9.00 Mostly Cloudy BKN008 BKN015 75 70 84% 75 29.63 1003.2
23 16:53 SW 14 G 24 10.00 Mostly Cloudy SCT007 BKN015 75.9 70 82% 77 29.65 1003.8
23 15:53 SW 14 G 25 10.00 Fair CLR 79 71.1 77% 82 29.67 1004.7
23 14:53 S 16 G 25 10.00 Fair CLR 77 70 79% 79 29.7 1005.5
23 13:53 SW 14 G 26 10.00 Mostly Cloudy SCT007 BKN018 78.1 72 78.1 70 82% 80 29.72 1006.5
23 12:53 SW 14 G 25 10.00 Overcast OVC005 75.9 71.1 85% 76 29.74 1007.1
23 11:53 S 13 3.00 Fog/Mist OVC002 73.9 71.1 91% 29.77 1007.9
23 10:53 S 13 G 21 1.00 Fog/Mist OVC002 73 71.1 94% 29.79 1008.5
23 09:53 SW 6 1.50 Fog/Mist OVC002 71.1 70 96% 29.81 1009.5
23 08:53 S 9 7.00 Overcast OVC006 70 68 93% 29.83 1010.2
23 07:53 S 7 8.00 Overcast OVC013 70 68 70 66 93% 29.86 1010.9 0.08
23 06:53 SE 7 5.00 Fog/Mist BKN003 OVC017 69.1 68 96% 29.87 1011.5 0.01
23 05:53 E 5 10.00 Overcast OVC003 66.9 66 97% 29.88 1011.9 0.03
23 04:53 E 10 10.00 Light Rain FEW004 OVC009 66.9 64.9 93% 29.89 1011.9 0.01 0.04
23 03:53 E 5 10.00 Overcast FEW003 OVC012 66 64.9 96% 29.93 1013.3 0.03
23 02:53 NW 3 1.75 Fog/Mist OVC002 66.9 64.9 93% 29.98 1015.1
23 01:53 Vrbl 3 3.00 Fog/Mist OVC002 66.9 64.9 71.1 66.9 93% 29.95 1014.1
23 00:53 NE 5 1.75 Fog/Mist OVC002 68 66 93% 29.97 1014.7
22 23:53 NE 6 1.75 Fog/Mist OVC003 70 68 93% 29.98 1015.0
22 22:53 NE 5 5.00 Fog/Mist OVC005 71.1 69.1 94% 29.98 1015.0
22 21:53 NE 3 1.25 Fog/Mist OVC002 70 69.1 97% 29.98 1015.1
22 20:53 Calm 2.50 Fog/Mist OVC002 70 69.1 97% 29.97 1014.7
22 19:53 E 5 0.75 Fog/Mist OVC002 70 68 77 70 93% 29.97 1014.8 0.16
22 18:53 SE 7 8.00 Light Rain FEW041 BKN100 BKN120 71.1 68 90% 29.98 1015.0 0.16
22 17:53 NE 7 10.00 Light Rain SCT024 SCT036 BKN060 73.9 69.1 85% 30 1015.7
22 16:53 SE 7 9.00 Fair CLR 73 69.1 87% 29.98 1015.2
22 15:53 E 8 10.00 Fair CLR 75.9 70 82% 77 29.97 1014.9
22 14:53 SE 8 10.00 Fair CLR 75.9 70 82% 77 29.99 1015.4
22 13:53 S 9 10.00 Fair CLR 75.9 70 77 71.1 82% 77 30 1015.7
22 12:53 SE 8 10.00 Fair CLR 75.9 71.1 85% 76 30.01 1016.3
22 11:53 S 8 10.00 Fair CLR 75.9 71.1 85% 76 30.02 1016.5
22 10:53 S 7 10.00 Fair CLR 77 72 85% 78 30.03 1017.0
22 09:53 Calm 10.00 Overcast OVC007 75.9 71.1 85% 76 30.05 1017.4
22 08:53 N 5 9.00 Overcast OVC005 73.9 70 88% 30.05 1017.6
22 07:53 Calm 4.00 Fog/Mist OVC003 71.1 70 71.1 68 96% 30.06 1017.7
22 06:53 Calm 4.00 Fog/Mist OVC002 70 68 93% 30.05 1017.6
22 05:53 Calm 1.00 Fog/Mist OVC001 68 66.9 96% 30.05 1017.6
22 04:53 Calm 1.50 Fog/Mist OVC002 68 66.9 96% 30.06 1017.9
22 03:53 Calm 6.00 Fog/Mist OVC003 68 66 93% 30.07 1018.3
22 02:53 Calm 3.00 Fog/Mist OVC005 68 66 93% 30.08 1018.7
22 01:53 Calm 5.00 Fog/Mist FEW070 69.1 66.9 73 69.1 93% 30.1 1019.3 0.09
22 00:53 N 3 5.00 Fog/Mist CLR 69.1 66.9 93% 30.11 1019.4
21 23:53 SE 3 6.00 Fog/Mist OVC005 69.1 66.9 93% 30.12 1019.8
21 22:53 Calm 5.00 Fog/Mist BKN004 69.1 66.9 93% 30.13 1020.0 0.09
21 21:53 S 3 10.00 A Few Clouds FEW110 72 70 94% 30.12 1019.8
21 20:53 NE 6 10.00 Light Rain CLR 72 70 94% 30.13 1020.1 0.09
21 19:53 N 3 5.00 Thunderstorm in Vicinity Light Rain Fog/Mist FEW037 BKN080 OVC095 71.1 69.1 82.9 71.1 94% 30.15 1020.8 0.24 0.24
21 18:53 SE 3 10.00 Fair CLR 71.1 66.9 87% 30.12 1019.7
21 17:53 SE 5 10.00 Mostly Cloudy SCT046 BKN075 77 69.1 77% 79 30.12 1019.7
21 16:53 S 5 10.00 Fair CLR 82 70 67% 86 30.1 1019.3
21 15:53 S 7 10.00 Fair CLR 82 70 67% 86 30.11 1019.5
21 14:53 S 7 10.00 Fair CLR 82 70 67% 86 30.12 1019.9
21 13:53 S 10 10.00 Fair CLR 82 69.1 86 73.9 65% 85 30.14 1020.4
21 12:53 SW 9 10.00 Fair CLR 82.9 69.1 63% 87 30.15 1020.9
21 11:53 W 6 10.00 Fair CLR 82 69.1 65% 85 30.16 1021.2
21 10:53 SE 9 10.00 Fair CLR 82 70 67% 86 30.16 1021.3
21 09:53 Vrbl 5 10.00 Fair CLR 80.1 70 71% 83 30.17 1021.5
21 08:53 Vrbl 3 10.00 Fair CLR 77 68 74% 79 30.17 1021.6
21 07:53 SW 6 10.00 Fair CLR 73.9 68 73.9 68 82% 30.18 1021.8
21 06:53 SW 3 10.00 Fair CLR 71.1 66.9 87% 30.18 1022.0
21 05:53 Calm 10.00 Fair CLR 68 66 93% 30.19 1022.1
21 04:53 SW 3 10.00 Fair CLR 68 64.9 90% 30.19 1022.2
21 03:53 SW 5 10.00 Fair CLR 68 64.9 90% 30.19 1022.1
21 02:53 S 6 10.00 Fair CLR 69.1 64 84% 30.19 1022.3
Date Time (edt) Wind (mph) Vis. (mi.) Weather Sky Cond. Air Dwpt Max. Min. Relative Humidity Wind Chill (°F) Heat Index (°F) altimeter (in) sea level (mb) 1 hr 3 hr 6 hr
6 hour
Temperature (ºF) Pressure Precipitation (in)